MDT,Max TemperatureF,Mean TemperatureF,Min TemperatureF,Max Dew PointF,MeanDew PointF,Min DewpointF,Max Humidity, Mean Humidity, Min Humidity, Max Sea Level PressureIn, Mean Sea Level PressureIn, Min Sea Level PressureIn, Max VisibilityMiles, Mean VisibilityMiles, Min VisibilityMiles, Max Wind SpeedMPH, Mean Wind SpeedMPH, Max Gust SpeedMPH,PrecipitationIn, CloudCover, Events, WindDirDegrees
2013-10-1,83,64,45,34,24,16,42,26,10,30.03,29.85,29.77,10,10,2,12,4,14,0.00,0,,188
2013-10-2,80,65,49,28,25,20,33,23,13,29.88,29.77,29.68,10,10,10,21,6,29,0.00,0,,197
2013-10-3,77,57,37,43,33,29,85,51,16,30.01,29.69,29.48,10,10,10,37,17,44,0.03,4,Rain,227
2013-10-4,54,43,31,38,31,23,100,66,32,30.35,30.19,29.96,10,10,9,28,6,33,0.01,3,Rain,59
2013-10-5,58,42,26,28,25,23,85,56,27,30.45,30.39,30.35,10,10,10,9,3,12,0.00,0,,255
2013-10-6,66,51,35,30,27,23,76,49,22,30.42,30.32,30.22,10,10,10,10,3,14,0.00,0,,292
2013-10-7,72,54,36,35,30,22,70,47,23,30.22,30.10,29.91,10,10,10,10,3,14,0.00,0,,255
2013-10-8,76,59,41,35,22,11,62,36,9,29.90,29.76,29.63,10,10,10,22,8,25,0.00,0,,203
2013-10-9,74,64,53,27,23,18,28,22,15,29.72,29.63,29.58,10,10,10,24,11,31,0.00,2,,157
2013-10-10,64,55,46,46,43,25,100,63,25,29.82,29.69,29.57,10,9,2,26,8,37,0.35,7,Rain-Thunderstorm,283
2013-10-11,62,51,40,42,38,31,96,64,32,30.01,29.95,29.82,10,10,10,14,2,20,0.00,2,,297
2013-10-12,65,54,42,41,38,31,83,57,30,30.08,29.99,29.91,10,10,10,15,5,21,0.00,3,,105
2013-10-13,70,58,46,42,34,26,71,46,20,29.91,29.84,29.73,10,10,8,28,9,39,0.01,2,Rain,194
2013-10-14,62,51,40,42,33,25,89,57,25,30.10,29.99,29.86,10,10,10,20,10,26,T,2,,287
2013-10-15,56,45,34,35,28,23,82,57,32,30.14,30.10,30.06,10,10,10,20,6,23,T,4,,10
2013-10-16,56,42,27,27,22,15,72,46,20,30.23,30.17,30.13,10,10,10,12,1,16,0.00,0,,271
2013-10-17,63,49,35,29,23,16,70,44,17,30.16,30.05,29.93,10,10,10,15,4,18,0.00,0,,258
2013-10-18,58,45,31,26,21,18,64,43,22,30.19,30.13,29.99,10,10,10,16,4,20,0.00,0,,251
2013-10-19,63,49,34,25,22,18,64,42,19,30.24,30.14,30.04,10,10,10,10,2,12,0.00,0,,190
2013-10-20,65,48,31,28,22,20,64,41,18,30.05,29.98,29.90,10,10,10,12,2,14,0.00,0,,232
2013-10-21,64,48,32,27,24,22,69,45,21,30.17,30.12,29.99,10,10,10,10,2,12,0.00,0,,300
2013-10-22,67,51,34,28,24,20,59,39,18,30.27,30.18,30.12,10,10,10,8,2,10,0.00,0,,233
2013-10-23,68,51,34,29,25,20,64,42,20,30.20,30.12,30.05,10,10,6,10,2,13,0.00,0,,341
2013-10-24,69,51,33,29,27,23,64,43,21,30.17,30.10,30.05,10,10,6,12,3,13,0.00,0,,283
2013-10-25,68,52,36,32,29,25,60,42,24,30.19,30.13,30.08,10,10,9,13,3,17,0.00,0,,270
2013-10-26,69,53,36,34,30,24,70,47,24,30.28,30.19,30.13,10,10,6,8,1,12,0.00,0,,273
2013-10-27,70,51,32,32,29,24,64,42,20,30.12,29.92,29.61,10,10,7,23,4,32,T,0,,151
2013-10-28,71,61,51,30,23,9,38,24,9,29.63,29.55,29.46,10,10,10,33,18,44,T,2,,171
2013-10-29,59,49,39,41,35,21,92,58,24,29.89,29.79,29.60,10,10,6,31,9,37,0.04,5,Rain-Thunderstorm,243
2013-10-30,44,40,35,36,35,32,92,81,70,30.04,29.95,29.89,10,10,10,6,2,,0.00,4,Rain,129
2013-10-31,53,41,29,35,28,24,89,61,32,30.16,30.10,30.05,10,10,10,12,2,15,0.00,3,,307